Location: Madrid
(40.4167°N, 3.7036°W)
Time: 08:31:37
(UTC+00:00)

ISS - Pass Details

Date: 14 May 2025
Orbit: 416 x 420 km, 51.6° (Epoch: 12 May)

Event Time Altitude Azimuth Distance (km) Brightness Sun altitude
Rises 22:36:21 0° 307° (NW) 2,361 1.0 -26.7°
Reaches altitude 10° 22:39:25 10° 338° (NNW) 1,496 0.0 -27.0°
Maximum altitude 22:41:01 13° 6° (N) 1,336 -0.5 -27.1°
Enters shadow 22:42:21 11° 31° (NNE) 1,448 -0.6 -27.2°
